Location: Ertinghausen
(51.6624°N, 9.7874°E)
Time: 09:41:07
(UTC+00:00)

USA 234 - Pass Details

Date: 23 May 2024
Orbit: 1100 x 1107 km, 123.0° (Epoch: 16 June)

Event Time Altitude Azimuth Distance (km) Brightness Sun altitude
Exits shadow 00:56:34 12° 169° (SSE) 2,771 4.9 -14.5°
Maximum altitude 01:01:46 33° 228° (SW) 1,761 3.9 -14.2°
Drops below altitude 10° 01:07:34 10° 291° (WNW) 2,964 5.5 -13.8°
Sets 01:10:22 0° 301° (WNW) 3,924 6.2 -13.6°
